Guernsey, United Kingdom

4:40 PM BST on May 21, 2018 (GMT +0100)
Guernsey

Weather History for EGJB - November, 2013

Change the Weather History Date:

Sunday, November 3, 2013

  Actual Average Record
Temperature  
Mean Temperature 52 °F -  
Max Temperature 57 °F 51 °F 60 °F (2011)
Min Temperature 47 °F 46 °F 42 °F (2016)
Degree Days  
Heating Degree Days 13    
Growing Degree Days 2 (Base 50)    
Moisture  
Dew Point 45 °F    
Average Humidity 79    
Maximum Humidity 100    
Minimum Humidity 60    
Precipitation  
Precipitation 0.16 in - - ()
Sea Level Pressure  
Sea Level Pressure 29.64 in    
Wind  
Wind Speed 24 mph ()    
Max Wind Speed 37 mph    
Max Gust Speed 52 mph    
Visibility 6.7 miles    
Events Rain    
Averages and records for this station are not official NWS values.
T = Trace of Precipitation, MM = Missing Value Source: Averaged Metar Reports

Daily Weather History Graph

Daily Weather History Graph

Search for Another Location

Airport or City:

Astronomy

Nov. 03, 2013 Rise Set
Actual Time 7:01 AM GMT 4:45 PM GMT
Civil Twilight 6:28 AM GMT 5:18 PM GMT
Nautical Twilight 5:50 AM GMT 5:56 PM GMT
Astronomical Twilight 5:13 AM GMT 6:33 PM GMT
Moon 6:50 AM GMT (11/3) 4:47 PM GMT (11/3)
Length of Visible Light 10h 50m
Length of Day
9h 43m
Waning Crescent, 0% of the Moon is Illuminated
Nov 3
Waning Crescent
Nov 3
New
Nov 10
First Quarter
Nov 17
Full
Nov 25
Last Quarter

Hourly Weather History & Observations

Time (GMT) Temp. Dew Point Humidity Pressure Visibility Wind Dir Wind Speed Gust Speed Precip Events Conditions
12:00 AM 49 °F 42 °F 67% 29.68 in 12 mi West 26.5 mph - - Rain Light Rain Showers
3:00 AM 50 °F 42 °F 65% 29.70 in 12 mi West 23.0 mph - -   Partly Cloudy
3:50 AM 50.0 °F 42.8 °F 76% 29.68 in 6.2 mi West 24.2 mph - N/A   Scattered Clouds
4:20 AM 50.0 °F 41.0 °F 71% 29.71 in 6.2 mi West 25.3 mph - N/A   Scattered Clouds
4:50 AM 50.0 °F 41.0 °F 71% 29.71 in 6.2 mi West 26.5 mph - N/A   Partly Cloudy
5:20 AM 50.0 °F 42.8 °F 76% 29.71 in 6.2 mi West 26.5 mph 38.0 mph N/A   Partly Cloudy
5:50 AM 50.0 °F 42.8 °F 76% 29.74 in 6.2 mi West 25.3 mph 39.1 mph N/A Rain Light Rain Showers
6:00 AM 50 °F 42 °F 66% 29.75 in 12 mi West 25.3 mph - - Rain Light Rain Showers
6:20 AM 50.0 °F 42.8 °F 76% 29.71 in 6.2 mi West 28.8 mph - N/A Rain Light Rain Showers
6:50 AM 50.0 °F 41.0 °F 71% 29.74 in 6.2 mi West 27.6 mph - N/A   Partly Cloudy
7:20 AM 50.0 °F 41.0 °F 71% 29.74 in 6.2 mi West 28.8 mph - N/A   Scattered Clouds
7:50 AM 51.8 °F 41.0 °F 67% 29.77 in 6.2 mi West 28.8 mph - N/A   Scattered Clouds
8:20 AM 51.8 °F 42.8 °F 71% 29.77 in 6.2 mi West 27.6 mph - N/A   Partly Cloudy
8:50 AM 51.8 °F 41.0 °F 67% 29.77 in 6.2 mi WSW 27.6 mph - N/A   Partly Cloudy
9:00 AM 51 °F 41 °F 60% 29.79 in 19 mi WSW 27.6 mph - -   Scattered Clouds
9:20 AM 51.8 °F 44.6 °F 76% 29.77 in 6.2 mi West 21.9 mph 34.5 mph N/A   Scattered Clouds
9:50 AM 51.8 °F 41.0 °F 67% 29.77 in 6.2 mi West 28.8 mph - N/A   Partly Cloudy
10:20 AM 53.6 °F 42.8 °F 67% 29.77 in 6.2 mi West 27.6 mph - N/A   Scattered Clouds
10:50 AM 51.8 °F 42.8 °F 71% 29.77 in 6.2 mi West 25.3 mph - N/A   Scattered Clouds
11:20 AM 51.8 °F 42.8 °F 71% 29.77 in 6.2 mi WSW 23.0 mph - N/A   Partly Cloudy
11:50 AM 51.8 °F 44.6 °F 76% 29.77 in 6.2 mi WSW 26.5 mph - N/A Rain Light Rain Showers
12:00 PM 52 °F 45 °F 70% 29.78 in 5 mi WSW 26.5 mph - - Rain Light Rain Showers
12:20 PM 51.8 °F 42.8 °F 71% 29.77 in 6.2 mi WSW 25.3 mph - N/A   Partly Cloudy
12:50 PM 51.8 °F 44.6 °F 76% 29.74 in 6.2 mi WSW 23.0 mph - N/A   Scattered Clouds
1:20 PM 53.6 °F 42.8 °F 67% 29.74 in 6.2 mi WSW 26.5 mph - N/A   Scattered Clouds
1:50 PM 50.0 °F 44.6 °F 82% 29.71 in 6.2 mi SW 25.3 mph - N/A   Scattered Clouds
2:20 PM 51.8 °F 44.6 °F 76% 29.71 in 6.2 mi WSW 25.3 mph - N/A   Partly Cloudy
2:50 PM 50.0 °F 46.4 °F 87% 29.68 in 6.2 mi SW 21.9 mph 36.8 mph N/A Rain Light Rain
3:00 PM 50 °F 46 °F 81% 29.70 in 9 mi SW 21.9 mph - - Rain Light Rain
3:20 PM 50.0 °F 48.2 °F 94% 29.65 in 5.0 mi SW 24.2 mph - N/A Rain Rain
3:50 PM 50.0 °F 48.2 °F 94% 29.65 in 5.0 mi SSW 18.4 mph 29.9 mph N/A Rain Rain
4:20 PM 51.8 °F 48.2 °F 88% 29.59 in 6.2 mi SSW 23.0 mph 34.5 mph N/A Rain Light Rain
4:50 PM 51.8 °F 48.2 °F 88% 29.56 in 6.2 mi SSW 20.7 mph - N/A Rain Rain
5:20 PM 51.8 °F 48.2 °F 88% 29.53 in 4.3 mi South 25.3 mph - N/A Rain Rain
5:50 PM 51.8 °F 50.0 °F 94% 29.47 in 4.3 mi South 25.3 mph 36.8 mph N/A Rain Rain
6:00 PM 51 °F 49 °F 92% 29.49 in 4 mi South 25.3 mph - - Rain Rain
6:20 PM 51.8 °F 50.0 °F 94% 29.39 in 3.7 mi South 33.4 mph - N/A Rain Rain
6:50 PM 51.8 °F 50.0 °F 94% 29.36 in 3.7 mi South 34.5 mph 50.6 mph N/A Rain Rain
7:20 PM 53.6 °F 51.8 °F 94% 29.33 in 4.3 mi South 36.8 mph 51.8 mph N/A Rain Rain
7:50 PM 53.6 °F 53.6 °F 100% 29.30 in 4.3 mi SSW 34.5 mph 48.3 mph N/A Rain Rain
8:20 PM 55.4 °F 53.6 °F 94% 29.27 in 6.2 mi SSW 28.8 mph 40.3 mph N/A Rain Light Rain
8:50 PM 57.2 °F 55.4 °F 94% 29.27 in 6.2 mi SW 31.1 mph 42.6 mph N/A   Mostly Cloudy
9:00 PM 57 °F 55 °F 92% 29.28 in 11 mi SW 31.1 mph - - Rain Light Rain